Middlebury State AP, Middlebu, VT

8:06 AM EST on November 13, 2019 (GMT -0500)
Middlebury State AP, Middlebu

Weather History for K6B0 - June, 2019

Change the Weather History Date:

Friday, June 14, 2019

  Actual Average (KRUT) Record (KRUT)
Temperature  
Mean Temperature 58 °F -  
Max Temperature 64 °F 77 °F 92 °F (1983)
Min Temperature 52 °F 52 °F 39 °F (1970)
Degree Days  
Heating Degree Days 7    
Growing Degree Days 8 (Base 50)    
Moisture  
Dew Point 51 °F    
Average Humidity 78    
Maximum Humidity 97    
Minimum Humidity 62    
Precipitation  
Precipitation 0.02 in - - ()
Sea Level Pressure  
Sea Level Pressure 29.75 in    
Wind  
Wind Speed 6 mph (South)    
Max Wind Speed 15 mph    
Max Gust Speed 20 mph    
Visibility 10 miles    
Events Rain    
Averages and records for this station are not official NWS values.
T = Trace of Precipitation, MM = Missing Value Source: NWS Daily Summary

Daily Weather History Graph

Daily Weather History Graph

Search for Another Location

Airport or City:

Astronomy

Jun. 14, 2019 Rise Set
Actual Time 5:09 AM EDT 8:36 PM EDT
Civil Twilight 4:32 AM EDT 9:12 PM EDT
Nautical Twilight 3:45 AM EDT 10:00 PM EDT
Astronomical Twilight 2:45 AM EDT 11:00 PM EDT
Moon 5:49 PM EDT (6/14) 3:32 AM EDT (6/14)
Length of Visible Light 16h 39m
Length of Day
15h 27m
Waxing Gibbous, 92% of the Moon is Illuminated
Jun 14
Waxing Gibbous
Jun 17
Full
Jun 25
Last Quarter
Jul 2
New
Jul 9
First Quarter

Hourly Weather History & Observations

Time (EDT) Temp. Dew Point Humidity Pressure Visibility Wind Dir Wind Speed Gust Speed Precip Events Conditions
12:15 AM 55.0 °F 48.7 °F 79% 29.69 in 10.0 mi South 4.6 mph - N/A   Overcast
12:39 AM 55.4 °F 48.6 °F 78% 29.69 in 10.0 mi SSE 4.6 mph - N/A   Overcast
12:57 AM 55.6 °F 48.6 °F 77% 29.69 in 10.0 mi South 3.5 mph - N/A   Mostly Cloudy
1:15 AM 55.4 °F 49.1 °F 79% 29.70 in 10.0 mi South 4.6 mph - N/A   Mostly Cloudy
1:35 AM 55.9 °F 49.1 °F 78% 29.70 in 10.0 mi SE 3.5 mph - N/A   Overcast
1:36 AM 55.9 °F 49.1 °F 78% 29.69 in 10.0 mi SE 3.5 mph - N/A   Overcast
1:55 AM 56.5 °F 49.1 °F 76% 29.69 in 10.0 mi South 4.6 mph - N/A   Overcast
1:59 AM 56.5 °F 49.3 °F 77% 29.69 in 10.0 mi South 4.6 mph - N/A   Overcast
2:17 AM 56.7 °F 49.5 °F 77% 29.69 in 10.0 mi South 4.6 mph - N/A   Overcast
2:35 AM 56.7 °F 49.8 °F 78% 29.69 in 10.0 mi South 6.9 mph - N/A   Overcast
2:55 AM 57.2 °F 50.2 °F 77% 29.68 in 10.0 mi South 6.9 mph - N/A   Overcast
2:56 AM 57.2 °F 50.2 °F 77% 29.68 in 10.0 mi South 6.9 mph - N/A   Overcast
3:15 AM 57.2 °F 50.9 °F 79% 29.68 in 10.0 mi South 6.9 mph - N/A   Overcast
3:16 AM 57.2 °F 50.9 °F 79% 29.68 in 10.0 mi South 8.1 mph - N/A   Overcast
3:38 AM 57.2 °F 50.9 °F 79% 29.68 in 10.0 mi South 5.8 mph - N/A   Overcast
3:57 AM 57.2 °F 51.1 °F 80% 29.67 in 10.0 mi South 8.1 mph - N/A   Overcast
4:15 AM 56.8 °F 51.3 °F 82% 29.67 in 10.0 mi South 5.8 mph - N/A   Overcast
4:16 AM 56.8 °F 51.3 °F 82% 29.67 in 10.0 mi South 6.9 mph - N/A   Overcast
4:35 AM 56.7 °F 51.6 °F 83% 29.67 in 10.0 mi South 9.2 mph - N/A   Overcast
4:36 AM 56.7 °F 51.6 °F 83% 29.67 in 10.0 mi South 10.4 mph - N/A   Overcast
4:55 AM 56.3 °F 51.8 °F 85% 29.67 in 10.0 mi SSE 6.9 mph - N/A   Scattered Clouds
5:17 AM 57.4 °F 52.2 °F 83% 29.68 in 10.0 mi South 9.2 mph - N/A   Mostly Cloudy
5:35 AM 57.6 °F 52.3 °F 83% 29.68 in 10.0 mi South 9.2 mph - N/A   Overcast
5:55 AM 57.7 °F 52.5 °F 83% 29.68 in 10.0 mi South 6.9 mph - N/A   Overcast
5:56 AM 57.7 °F 52.7 °F 83% 29.68 in 10.0 mi South 6.9 mph - N/A   Overcast
6:15 AM 58.1 °F 52.7 °F 82% 29.68 in 10.0 mi South 9.2 mph - N/A   Overcast
6:16 AM 58.1 °F 52.7 °F 82% 29.68 in 10.0 mi South 10.4 mph - N/A   Overcast
6:38 AM 58.1 °F 52.9 °F 83% 29.69 in 10.0 mi South 12.7 mph 16.1 mph N/A   Overcast
6:56 AM 58.1 °F 52.9 °F 83% 29.69 in 10.0 mi South 10.4 mph - N/A   Mostly Cloudy
7:16 AM 58.1 °F 53.2 °F 84% 29.69 in 10.0 mi South 9.2 mph - N/A   Mostly Cloudy
7:35 AM 60.1 °F 53.8 °F 80% 29.69 in 10.0 mi South 10.4 mph 16.1 mph N/A   Mostly Cloudy
7:36 AM 60.3 °F 53.8 °F 79% 29.68 in 10.0 mi SSE 11.5 mph 16.1 mph N/A   Mostly Cloudy
7:55 AM 60.4 °F 53.1 °F 77% 29.69 in 10.0 mi South 11.5 mph 18.4 mph N/A   Mostly Cloudy
8:00 AM 60.3 °F 53.1 °F 77% 29.69 in 10.0 mi SSW 13.8 mph - N/A   Mostly Cloudy
8:18 AM 59.2 °F 52.2 °F 78% 29.69 in 10.0 mi South 12.7 mph 18.4 mph N/A   Scattered Clouds
8:35 AM 61.5 °F 52.9 °F 73% 29.69 in 10.0 mi South 10.4 mph 17.3 mph N/A   Mostly Cloudy
8:55 AM 61.3 °F 53.1 °F 74% 29.69 in 10.0 mi South 9.2 mph - N/A   Overcast
8:56 AM 61.5 °F 53.1 °F 74% 29.69 in 10.0 mi South 12.7 mph 17.3 mph N/A   Overcast
9:15 AM 61.7 °F 52.9 °F 73% 29.70 in 10.0 mi South 13.8 mph 19.6 mph N/A   Overcast
9:16 AM 61.9 °F 52.9 °F 72% 29.70 in 10.0 mi South 15.0 mph 19.6 mph N/A   Overcast
9:38 AM 63.5 °F 53.2 °F 69% 29.70 in 10.0 mi South 9.2 mph 17.3 mph N/A   Overcast
9:56 AM 62.6 °F 50.5 °F 65% 29.70 in 10.0 mi SSW 10.4 mph - N/A   Overcast
10:16 AM 63.1 °F 51.4 °F 66% 29.70 in 10.0 mi South 11.5 mph 17.3 mph N/A   Overcast
10:35 AM 62.1 °F 50.5 °F 66% 29.70 in 10.0 mi South 10.4 mph 18.4 mph N/A   Overcast
10:36 AM 62.1 °F 50.5 °F 66% 29.70 in 10.0 mi South 11.5 mph 18.4 mph N/A   Overcast
10:55 AM 61.9 °F 51.8 °F 69% 29.70 in 10.0 mi South 12.7 mph - N/A   Overcast
11:00 AM 62.6 °F 51.8 °F 68% 29.70 in 10.0 mi South 13.8 mph 17.3 mph N/A   Overcast
11:18 AM 59.9 °F 52.7 °F 77% 29.71 in 10.0 mi South 10.4 mph - N/A   Light Drizzle
11:36 AM 61.3 °F 54.5 °F 78% 29.71 in 10.0 mi South 10.4 mph - N/A   Mostly Cloudy
11:55 AM 64.4 °F 54.5 °F 70% 29.71 in 10.0 mi South 11.5 mph 16.1 mph N/A   Mostly Cloudy
12:15 PM 63.1 °F 52.7 °F 69% 29.70 in 10.0 mi SSW 11.5 mph 18.4 mph N/A   Overcast
12:38 PM 62.1 °F 52.9 °F 72% 29.73 in 5.0 mi SSW 6.9 mph - N/A Rain Rain
12:56 PM 59.9 °F 54.9 °F 83% 29.73 in 10.0 mi South 5.8 mph - N/A   Overcast
1:16 PM 60.4 °F 55.0 °F 82% 29.74 in 10.0 mi WSW 4.6 mph - N/A Rain Light Rain
1:35 PM 60.6 °F 54.7 °F 81% 29.74 in 10.0 mi SE 4.6 mph - N/A   Overcast
1:36 PM 60.6 °F 55.2 °F 82% 29.74 in 10.0 mi SSE 4.6 mph - N/A   Overcast
1:55 PM 59.9 °F 55.0 °F 84% 29.75 in 10.0 mi West 5.8 mph - N/A   Overcast
1:59 PM 59.9 °F 52.3 °F 76% 29.75 in 7.0 mi SW 5.8 mph - 0.01 in Rain Rain
2:17 PM 58.6 °F 49.6 °F 72% 29.76 in 10.0 mi SSE 4.6 mph - N/A Rain Light Rain
2:35 PM 59.4 °F 52.0 °F 77% 29.76 in 10.0 mi South 8.1 mph - N/A   Overcast
2:55 PM 61.2 °F 48.0 °F 62% 29.77 in 10.0 mi WSW 8.1 mph - N/A   Overcast
3:15 PM 60.3 °F 47.1 °F 62% 29.78 in 10.0 mi West 5.8 mph - N/A   Overcast
3:39 PM 59.7 °F 46.8 °F 62% 29.79 in 10.0 mi Calm Calm - N/A   Overcast
3:57 PM 59.4 °F 46.6 °F 63% 29.79 in 10.0 mi SW 5.8 mph - N/A   Overcast
4:15 PM 59.2 °F 46.8 °F 63% 29.80 in 10.0 mi SSW 4.6 mph - N/A   Overcast
4:16 PM 59.2 °F 46.8 °F 63% 29.80 in 10.0 mi SSW 4.6 mph - N/A   Overcast
4:35 PM 59.0 °F 47.1 °F 65% 29.80 in 10.0 mi SSW 5.8 mph - N/A   Overcast
4:36 PM 59.0 °F 47.1 °F 65% 29.80 in 10.0 mi South 4.6 mph - N/A   Overcast
4:55 PM 58.6 °F 47.5 °F 66% 29.81 in 10.0 mi SSW 6.9 mph - N/A   Overcast
4:59 PM 58.5 °F 47.8 °F 68% 29.81 in 10.0 mi South 5.8 mph - N/A   Overcast
5:17 PM 58.1 °F 48.0 °F 69% 29.81 in 10.0 mi South 6.9 mph - N/A   Overcast
5:36 PM 57.7 °F 48.0 °F 70% 29.82 in 10.0 mi South 5.8 mph - N/A   Overcast
5:55 PM 58.1 °F 47.8 °F 69% 29.83 in 10.0 mi South 6.9 mph - N/A   Overcast
5:56 PM 58.1 °F 48.0 °F 69% 29.83 in 10.0 mi SSW 6.9 mph - N/A   Overcast
6:15 PM 57.6 °F 48.4 °F 71% 29.84 in 10.0 mi SSE 4.6 mph - N/A Rain Rain
6:19 PM 57.4 °F 48.6 °F 72% 29.84 in 10.0 mi South 4.6 mph - N/A Rain Rain
6:37 PM 56.3 °F 49.3 °F 77% 29.85 in 10.0 mi SSE 3.5 mph - N/A   Drizzle
6:55 PM 54.9 °F 50.9 °F 86% 29.86 in 10.0 mi Calm Calm - N/A   Drizzle
7:15 PM 54.5 °F 51.3 °F 89% 29.87 in 10.0 mi Calm Calm - N/A   Drizzle
7:16 PM 54.5 °F 51.3 °F 89% 29.87 in 10.0 mi Calm Calm - N/A   Drizzle
7:35 PM 54.5 °F 50.9 °F 88% 29.88 in 10.0 mi Calm Calm - 0.01 in   Overcast
7:59 PM 54.5 °F 51.4 °F 89% 29.89 in 10.0 mi Calm Calm - 0.01 in   Overcast
8:16 PM 54.1 °F 52.3 °F 94% 29.89 in 10.0 mi Calm Calm - N/A   Overcast
8:36 PM 54.0 °F 51.8 °F 92% 29.90 in 10.0 mi Calm Calm - N/A   Overcast
8:55 PM 54.5 °F 51.6 °F 90% 29.91 in 10.0 mi SSE 4.6 mph - N/A   Overcast
8:56 PM 54.5 °F 51.6 °F 90% 29.91 in 10.0 mi SSE 4.6 mph - N/A   Overcast
9:15 PM 54.7 °F 51.4 °F 89% 29.91 in 10.0 mi SE 3.5 mph - N/A   Overcast
9:19 PM 54.5 °F 51.6 °F 90% 29.92 in 10.0 mi Calm Calm - N/A   Overcast
9:37 PM 54.0 °F 52.7 °F 95% 29.92 in 10.0 mi Calm Calm - N/A   Overcast
9:55 PM 54.0 °F 52.7 °F 95% 29.92 in 10.0 mi Calm Calm - N/A   Overcast
10:15 PM 53.4 °F 52.0 °F 95% 29.92 in 10.0 mi Calm Calm - N/A   Overcast
10:16 PM 53.2 °F 52.0 °F 95% 29.93 in 10.0 mi Calm Calm - N/A   Overcast
10:35 PM 52.3 °F 51.3 °F 96% 29.93 in 10.0 mi Calm Calm - N/A   Overcast
10:36 PM 52.2 °F 51.3 °F 97% 29.93 in 10.0 mi Calm Calm - N/A   Overcast